Location: Austin
(30.3000°N, 97.7500°W)
Time: 08:42:28
(UTC-05:00)

Meteor 1-25 Rocket - Pass Details

Date: 19 September 2023
Orbit: 835 x 892 km, 81.2° (Epoch: 25 September)

Event Time Altitude Azimuth Distance (km) Brightness Sun altitude
Rises 06:02:46 0° 346° (NNW) 3,429 7.4 -16.8°
Reaches altitude 10° 06:05:13 10° 342° (NNW) 2,499 6.6 -16.3°
Maximum altitude 06:10:44 56° 266° (W) 1,029 4.3 -15.2°
Drops below altitude 10° 06:16:20 10° 189° (S) 2,524 6.5 -14.0°
Sets 06:18:49 0° 185° (S) 3,466 7.2 -13.4°
